Location: Aalen
(48.8330°N, 10.1000°E)
Time: 17:16:45
(UTC+02:00)

XW-2B - Visible Passes

Search period start: 25 September 2021 00:00
Search period end: 05 October 2021 00:00
Orbit: 505 x 523 km, 97.5° (Epoch: 25 September)

Date Brightness Start Highest point End Pass type
(mag) Time Alt. Az. Time Alt. Az. Time Alt. Az.
25 Sep ? 19:41:04 10° WSW 19:43:06 14° W 19:45:10 10° WNW visible
28 Sep ? 06:36:19 10° NE 06:39:12 21° E 06:42:03 10° SE visible
29 Sep ? 06:21:37 10° NE 06:23:44 14° E 06:25:51 10° SE visible
01 Oct ? 19:43:26 10° WSW 19:45:18 13° W 19:47:10 10° WNW visible
02 Oct ? 19:27:06 10° SW 19:29:50 19° W 19:32:35 10° NW visible
04 Oct ? 06:38:23 10° NE 06:41:19 22° E 06:44:14 10° SE visible
